Location: Gouy
(50.0008°N, 3.2556°E)
Time: 14:31:56
(UTC+00:00)

Cosmos 1140 Rocket - Pass Details

Date: 23 May 2024
Orbit: 742 x 764 km, 74.1° (Epoch: 16 June)

Event Time Altitude Azimuth Distance (km) Brightness Sun altitude
Exits shadow 00:22:28 27° 230° (SW) 1,431 4.5 -18.8°
Maximum altitude 00:25:10 57° 298° (WNW) 898 3.9 -18.8°
Drops below altitude 10° 00:30:20 10° 18° (NNE) 2,306 7.2 -18.6°
Sets 00:32:45 0° 22° (NNE) 3,233 8.3 -18.5°
